Weather History for Two Harbors, MN

Change the Weather History Date:

Thursday, January 3, 2013

  Actual Average Record
Temperature  
Mean Temperature 16 °F -  
Max Temperature 21 °F 24 °F 44 °F (1984)
Min Temperature 10 °F 6 °F -23 °F (2014)
Degree Days  
Heating Degree Days 50    
Moisture  
Dew Point 7 °F    
Average Humidity 65    
Maximum Humidity 80    
Minimum Humidity 46    
Precipitation  
Precipitation 0.00 in - - ()
Sea Level Pressure  
Sea Level Pressure 29.97 in    
Wind  
Wind Speed 6 mph (West)    
Max Wind Speed 17 mph    
Max Gust Speed 23 mph    
Visibility 10 miles    
Events Snow    
Averages and records for this station are not official NWS values.
T = Trace of Precipitation, MM = Missing Value Source: NWS Daily Summary

Daily Weather History Graph

Daily Weather History Graph

Search for Another Location

Airport:

Trip Planner

Search our weather history database for the weather conditions in past years. The results will help you decide how hot, cold, wet, or windy it might be!

Date:

Astronomy

Jan. 03, 2013 Rise Set
Actual Time 7:52 AM CST 4:30 PM CST
Civil Twilight 7:17 AM CST 5:05 PM CST
Nautical Twilight 6:39 AM CST 5:44 PM CST
Astronomical Twilight 6:02 AM CST 6:21 PM CST
Moon 11:34 PM CST (1/3) 10:38 AM CST (1/3)
Length of Visible Light 9h 48m
Length of Day
8h 37m
Waning Gibbous, 65% of the Moon is Illuminated
Jan 3
Waning Gibbous
Jan 4
Last Quarter
Jan 11
New
Jan 18
First Quarter
Jan 26
Full

Hourly Weather History & Observations

Time (CST) Temp. Windchill Dew Point Humidity Pressure Visibility Wind Dir Wind Speed Gust Speed Precip Events Conditions
12:11 AM 17.6 °F 12.3 °F 12.2 °F 79% 29.96 in 5.0 mi SSW 3.5 mph - N/A   Haze
12:31 AM 17.6 °F 12.3 °F 12.2 °F 79% 29.95 in 5.0 mi SW 3.5 mph - N/A   Haze
1:11 AM 17.6 °F - 12.2 °F 79% 29.95 in 5.0 mi Calm Calm - N/A   Haze
1:32 AM 19.4 °F - 14.0 °F 80% 29.95 in 7.0 mi Calm Calm - N/A   Overcast
1:51 AM 21.2 °F 16.4 °F 15.8 °F 80% 29.95 in 10.0 mi NW 3.5 mph - N/A   Overcast
2:11 AM 21.2 °F 14.9 °F 15.8 °F 80% 29.96 in 10.0 mi NW 4.6 mph - N/A   Overcast
2:32 AM 21.2 °F - 15.8 °F 80% 29.96 in 10.0 mi Calm Calm - N/A   Overcast
2:51 AM 21.2 °F 16.4 °F 14.0 °F 74% 29.97 in 10.0 mi WNW 3.5 mph - N/A   Overcast
3:11 AM 19.4 °F 12.8 °F 14.0 °F 80% 29.97 in 10.0 mi NW 4.6 mph - N/A   Overcast
3:32 AM 19.4 °F - 12.2 °F 74% 29.98 in 10.0 mi Calm Calm - N/A   Overcast
3:51 AM 19.4 °F 10.4 °F 12.2 °F 74% 29.99 in 10.0 mi NW 6.9 mph - N/A   Overcast
4:11 AM 19.4 °F 11.5 °F 12.2 °F 74% 30.00 in 10.0 mi NNW 5.8 mph - N/A   Overcast
4:32 AM 19.4 °F 10.4 °F 10.4 °F 68% 30.01 in 10.0 mi NNW 6.9 mph 19.6 mph N/A   Overcast
4:51 AM 17.6 °F 7.3 °F 10.4 °F 73% 30.01 in 10.0 mi NW 8.1 mph - N/A   Overcast
5:11 AM 17.6 °F 12.3 °F 10.4 °F 73% 30.02 in 10.0 mi NW 3.5 mph - N/A   Overcast
5:31 AM 17.6 °F 12.3 °F 10.4 °F 73% 30.02 in 10.0 mi NW 3.5 mph - N/A Snow Light Snow
5:51 AM 17.6 °F 12.3 °F 8.6 °F 68% 30.03 in 10.0 mi WNW 3.5 mph - N/A Snow Light Snow
6:11 AM 15.8 °F 3.4 °F 8.6 °F 73% 30.04 in 10.0 mi WNW 10.4 mph - N/A   Overcast
6:31 AM 12.2 °F 2.9 °F 6.8 °F 79% 30.04 in 10.0 mi WNW 5.8 mph - N/A Snow Light Snow
6:51 AM 12.2 °F 2.9 °F 5.0 °F 73% 30.05 in 10.0 mi NW 5.8 mph - N/A   Scattered Clouds
7:11 AM 10.4 °F 0.8 °F 3.2 °F 73% 30.06 in 10.0 mi NW 5.8 mph - N/A   Clear
7:31 AM 10.4 °F 4.0 °F 3.2 °F 73% 30.06 in 10.0 mi NW 3.5 mph - N/A Snow Light Snow
7:52 AM 10.4 °F - 3.2 °F 73% 30.06 in 10.0 mi Calm Calm - N/A   Clear
8:11 AM 10.4 °F - 3.2 °F 73% 30.07 in 10.0 mi Calm Calm - N/A   Clear
8:31 AM 10.4 °F 4.0 °F 3.2 °F 73% 30.07 in 7.0 mi WNW 3.5 mph - N/A Snow Light Snow
8:52 AM 12.2 °F 1.7 °F 3.2 °F 67% 30.07 in 7.0 mi WNW 6.9 mph - N/A Snow Light Snow
9:11 AM 12.2 °F -0.2 °F 3.2 °F 67% 30.08 in 10.0 mi WNW 9.2 mph - N/A   Clear
9:31 AM 14.0 °F 3.9 °F 3.2 °F 62% 30.08 in 7.0 mi WNW 6.9 mph - N/A Snow Light Snow
9:52 AM 14.0 °F 1.2 °F 3.2 °F 62% 30.08 in 10.0 mi West 10.4 mph 17.3 mph N/A   Scattered Clouds
10:11 AM 15.8 °F 4.2 °F 3.2 °F 58% 30.08 in 10.0 mi West 9.2 mph - N/A   Scattered Clouds
10:31 AM 15.8 °F 6.1 °F 3.2 °F 58% 30.09 in 10.0 mi West 6.9 mph 17.3 mph N/A   Clear
10:52 AM 15.8 °F 6.1 °F 5.0 °F 62% 30.08 in 10.0 mi West 6.9 mph - N/A   Clear
11:11 AM 17.6 °F 7.3 °F 3.2 °F 53% 30.08 in 10.0 mi West 8.1 mph - N/A   Clear
11:31 AM 17.6 °F 6.4 °F 3.2 °F 53% 30.07 in 10.0 mi WSW 9.2 mph - N/A   Clear
11:52 AM 17.6 °F 6.4 °F 3.2 °F 53% 30.06 in 10.0 mi West 9.2 mph - N/A   Clear
12:11 PM 17.6 °F 9.3 °F 3.2 °F 53% 30.05 in 10.0 mi West 5.8 mph - N/A   Clear
12:32 PM 19.4 °F 10.4 °F 5.0 °F 54% 30.04 in 10.0 mi West 6.9 mph - N/A   Clear
12:51 PM 19.4 °F 8.6 °F 5.0 °F 54% 30.03 in 10.0 mi West 9.2 mph - N/A   Clear
1:12 PM 19.4 °F 7.9 °F 5.0 °F 54% 30.02 in 10.0 mi WSW 10.4 mph - N/A   Clear
1:31 PM 19.4 °F 6.0 °F 5.0 °F 54% 30.01 in 4.0 mi West 13.8 mph 21.9 mph N/A Snow Light Snow
1:51 PM 21.2 °F 8.3 °F 6.8 °F 54% 30.00 in 7.0 mi WSW 13.8 mph 20.7 mph N/A   Clear
2:12 PM 21.2 °F 9.5 °F 6.8 °F 54% 30.00 in 10.0 mi WSW 11.5 mph 16.1 mph N/A   Clear
2:31 PM 21.2 °F 9.5 °F 3.2 °F 46% 29.99 in 10.0 mi SW 11.5 mph - N/A   Clear
2:51 PM 21.2 °F 8.3 °F 3.2 °F 46% 29.99 in 10.0 mi WSW 13.8 mph 19.6 mph N/A   Clear
3:12 PM 21.2 °F 9.5 °F 3.2 °F 46% 29.98 in 10.0 mi WSW 11.5 mph - N/A   Clear
3:31 PM 21.2 °F 9.5 °F 3.2 °F 46% 29.98 in 10.0 mi WSW 11.5 mph 21.9 mph N/A   Clear
3:51 PM 21.2 °F 10.9 °F 3.2 °F 46% 29.97 in 10.0 mi WSW 9.2 mph 18.4 mph N/A   Clear
4:12 PM 21.2 °F 8.9 °F 3.2 °F 46% 29.98 in 10.0 mi WSW 12.7 mph 17.3 mph N/A   Clear
4:31 PM 19.4 °F 8.6 °F 3.2 °F 49% 29.97 in 10.0 mi SW 9.2 mph - N/A   Clear
4:51 PM 19.4 °F 8.6 °F 3.2 °F 49% 29.96 in 10.0 mi SW 9.2 mph - N/A   Clear
5:12 PM 17.6 °F 4.3 °F 3.2 °F 53% 29.96 in 10.0 mi SW 12.7 mph 16.1 mph N/A   Clear
5:31 PM 17.6 °F 2.2 °F 3.2 °F 53% 29.95 in 10.0 mi SW 17.3 mph 20.7 mph N/A   Clear
5:51 PM 15.8 °F 1.4 °F 3.2 °F 58% 29.95 in 10.0 mi SW 13.8 mph 23.0 mph N/A   Clear
6:12 PM 15.8 °F 2.7 °F 5.0 °F 62% 29.93 in 10.0 mi WSW 11.5 mph - N/A   Clear
6:31 PM 15.8 °F 2.1 °F 5.0 °F 62% 29.92 in 10.0 mi WSW 12.7 mph 18.4 mph N/A   Clear
6:51 PM 15.8 °F 2.7 °F 5.0 °F 62% 29.92 in 10.0 mi WSW 11.5 mph 21.9 mph N/A   Clear
7:11 PM 15.8 °F 1.4 °F 5.0 °F 62% 29.91 in 10.0 mi WSW 13.8 mph 20.7 mph N/A   Clear
7:31 PM 15.8 °F 1.4 °F 5.0 °F 62% 29.90 in 10.0 mi WSW 13.8 mph - N/A   Clear
7:52 PM 14.0 °F -0.2 °F 5.0 °F 67% 29.89 in 10.0 mi WSW 12.7 mph 18.4 mph N/A   Clear
8:11 PM 14.0 °F -0.2 °F 6.8 °F 73% 29.87 in 10.0 mi WSW 12.7 mph - N/A   Clear
8:31 PM 14.0 °F -1.4 °F 6.8 °F 73% 29.86 in 10.0 mi SW 15.0 mph 20.7 mph N/A   Clear
8:52 PM 14.0 °F -0.8 °F 6.8 °F 73% 29.84 in 10.0 mi SW 13.8 mph 19.6 mph N/A   Clear
9:11 PM 14.0 °F -0.2 °F 6.8 °F 73% 29.83 in 10.0 mi WSW 12.7 mph - N/A   Clear
9:31 PM 14.0 °F 0.5 °F 6.8 °F 73% 29.82 in 10.0 mi WSW 11.5 mph 19.6 mph N/A   Clear
9:51 PM 14.0 °F 0.5 °F 6.8 °F 73% 29.82 in 10.0 mi WSW 11.5 mph - N/A   Clear
10:11 PM 15.8 °F 1.4 °F 6.8 °F 68% 29.80 in 10.0 mi SW 13.8 mph 19.6 mph N/A   Clear
10:32 PM 15.8 °F 2.1 °F 8.6 °F 73% 29.80 in 10.0 mi WSW 12.7 mph 17.3 mph N/A   Clear
10:51 PM 15.8 °F 4.2 °F 8.6 °F 73% 29.81 in 10.0 mi WSW 9.2 mph - N/A   Clear
11:11 PM 15.8 °F 8.6 °F 8.6 °F 73% 29.83 in 10.0 mi West 4.6 mph - N/A   Clear
11:32 PM 15.8 °F 4.2 °F 8.6 °F 73% 29.83 in 10.0 mi WSW 9.2 mph - N/A   Clear
11:51 PM 15.8 °F 3.4 °F 8.6 °F 73% 29.82 in 10.0 mi WSW 10.4 mph 17.3 mph N/A   Clear